Voltar ao catálogo

STARLINK-33894

AtivoComunicaçõesVLEO
NORAD 63697·PAYLOAD·🇺🇸 United States

Lançado Apr 28, 2025 de Vandenberg Space Force Base

Loading…

Próximas Passagens (próximas 24 horas)

TLE

AtualizadoSource: CelesTrak SupGP

Época: Sep 14, 2026, 23:04 UTC

1 63697C 25087A   26257.96159722  .00027277  00000+0  80644-3 0  2572
2 63697  53.1588  55.9546 0001248  79.5530 179.7968 15.34355745    11

Acompanhe STARLINK-33894 em tempo real com AllMySat

Download on the App Store